Simultaneous Nadir Overpasses (SNOs) Predictions

Prediction of SNOs between GOES-16 and NPP Satellite Orbit:

Table of predicted SNOs for the next 14.0 days since TLE Epoch: 2/10/2024
Index Date Time (GOES-16) GOES-16 Lat,Lon NPP Lat,Lon Distance(km) Time Diff (sec)
1 02/11/2024 06:39:15 -0.07, -75.21 0.57, -78.04 323.07 80
2 02/12/2024 06:17:50 -0.07, -75.21 -0.47, -73.51 194.26 80
3 02/13/2024 18:39:46 0.06, -75.23 -0.74, -78.81 407.55 80
4 02/14/2024 18:23:40 0.06, -75.25 0.25, -74.27 110.36 80
5 02/16/2024 06:45:28 -0.06, -75.26 0.92, -79.54 488.56 80
6 02/17/2024 06:24:03 -0.06, -75.27 -0.13, -75.01 29.41 80
7 02/19/2024 18:27:13 0.05, -75.31 -0.07, -75.78 53.28 80
8 02/20/2024 18:11:07 0.04, -75.33 0.93, -71.24 465.39 80
9 02/22/2024 06:32:55 -0.04, -75.35 0.23, -76.51 131.89 80
10 02/23/2024 06:11:29 -0.03, -75.37 -0.77, -71.97 387.14 80
